SXBEP LGKM-LGTS

Flight info

Callsign SXBEP
Flight time N/A
Altitude 8000
Route KAVALA LGKV ASKOS1B ASKOS G12 ARNAS ARNAS3F
Aircraft DA42/L-SBDFGRYZ/S

Departure

Time 2026-04-27 12:36
Airport Kavala Amygdaleon Lydia Airfield (LGKM)

Arrival

Time N/A
Airport Thessaloniki Macedonia International Airport (LGTS)
Time Latitude Longitude Altitude Speed Heading
2026-04-27 12:25 40.97104 24.34677 204 ft 0 kts 319°
2026-04-27 12:30 40.97114 24.34655 208 ft 7 kts 290°
2026-04-27 12:31 40.97083 24.34586 204 ft 10 kts 282°
2026-04-27 12:31 40.97159 24.34495 204 ft 20 kts 319°
2026-04-27 12:31 40.97283 24.34360 204 ft 26 kts 320°
2026-04-27 12:31 40.97413 24.34217 204 ft 24 kts 321°
2026-04-27 12:32 40.97447 24.34070 204 ft 11 kts 266°
2026-04-27 12:32 40.97448 24.34055 204 ft 0 kts 299°
2026-04-27 12:34 40.97453 24.34010 206 ft 15 kts 269°
2026-04-27 12:34 40.97517 24.33877 210 ft 24 kts 320°
2026-04-27 12:34 40.97647 24.33724 204 ft 26 kts 318°
2026-04-27 12:34 40.97730 24.33639 202 ft 4 kts 234°
2026-04-27 12:35 40.97719 24.33640 202 ft 0 kts 137°
2026-04-27 12:35 40.97649 24.33728 204 ft 42 kts 137°
2026-04-27 12:35 40.97315 24.34107 239 ft 77 kts 138°
2026-04-27 12:35 40.96911 24.34600 423 ft 84 kts 136°
2026-04-27 12:36 40.96414 24.34926 739 ft 89 kts 190°
2026-04-27 12:36 40.95995 24.34244 1003 ft 103 kts 242°
2026-04-27 12:36 40.95735 24.33430 1352 ft 91 kts 240°
2026-04-27 12:36 40.95473 24.32597 1513 ft 101 kts 255°
2026-04-27 12:37 40.95697 24.31734 1699 ft 105 kts 316°
2026-04-27 12:37 40.96164 24.31028 2010 ft 100 kts 313°
2026-04-27 12:37 40.96626 24.30353 2242 ft 101 kts 315°
2026-04-27 12:37 40.97086 24.29656 2495 ft 99 kts 313°
2026-04-27 12:38 40.97535 24.28949 2737 ft 100 kts 325°
2026-04-27 12:38 40.98164 24.28709 2972 ft 95 kts 13°
2026-04-27 12:38 40.98770 24.29145 3001 ft 106 kts 45°
2026-04-27 12:38 40.99347 24.29849 3004 ft 117 kts 53°
2026-04-27 12:39 40.99601 24.30844 3009 ft 117 kts 99°
2026-04-27 12:39 40.99226 24.31807 3003 ft 123 kts 131°
2026-04-27 12:39 40.98644 24.32654 3004 ft 127 kts 133°
2026-04-27 12:39 40.98032 24.33529 3003 ft 131 kts 133°
2026-04-27 12:40 40.97406 24.34408 3004 ft 132 kts 132°
2026-04-27 12:40 40.96754 24.35274 3000 ft 134 kts 134°
2026-04-27 12:40 40.96085 24.36135 3009 ft 135 kts 134°
2026-04-27 12:40 40.95401 24.37015 2996 ft 139 kts 133°
2026-04-27 12:41 40.94711 24.37893 2995 ft 138 kts 133°
2026-04-27 12:41 40.94024 24.38762 2997 ft 136 kts 131°
2026-04-27 12:41 40.93319 24.39597 2993 ft 136 kts 134°
2026-04-27 12:41 40.92614 24.40421 2988 ft 134 kts 133°
2026-04-27 12:42 40.91906 24.41207 2992 ft 133 kts 135°
2026-04-27 12:42 40.91214 24.42024 2993 ft 134 kts 134°
2026-04-27 12:42 40.90520 24.42850 2994 ft 135 kts 133°
2026-04-27 12:42 40.89814 24.43678 2963 ft 137 kts 131°
2026-04-27 12:43 40.89093 24.44500 2837 ft 137 kts 135°
2026-04-27 12:43 40.88387 24.45330 2711 ft 135 kts 132°
2026-04-27 12:43 40.87675 24.46134 2583 ft 134 kts 133°
2026-04-27 12:43 40.86974 24.46932 2455 ft 132 kts 133°
2026-04-27 12:44 40.86277 24.47721 2331 ft 132 kts 135°
2026-04-27 12:44 40.85701 24.48635 2167 ft 130 kts 108°
2026-04-27 12:44 40.85689 24.49806 1991 ft 129 kts 81°
2026-04-27 12:44 40.85985 24.50931 1809 ft 132 kts 64°
2026-04-27 12:45 40.86453 24.51971 1636 ft 132 kts 61°
2026-04-27 12:45 40.86947 24.52989 1456 ft 134 kts 60°
2026-04-27 12:45 40.87458 24.54016 1270 ft 134 kts 59°
2026-04-27 12:45 40.87949 24.54978 1080 ft 117 kts 58°
2026-04-27 12:46 40.88385 24.55831 904 ft 110 kts 59°
2026-04-27 12:46 40.88804 24.56648 719 ft 102 kts 62°
2026-04-27 12:46 40.89179 24.57386 545 ft 89 kts 65°
2026-04-27 12:46 40.89493 24.58006 406 ft 76 kts 68°
2026-04-27 12:47 40.89747 24.58603 359 ft 76 kts 72°
2026-04-27 12:47 40.89993 24.59232 254 ft 78 kts 62°
2026-04-27 12:47 40.90281 24.59817 169 ft 75 kts 62°
2026-04-27 12:47 40.90572 24.60380 80 ft 73 kts 66°
2026-04-27 12:48 40.90845 24.60902 15 ft 58 kts 63°
2026-04-27 12:48 40.91031 24.61301 14 ft 59 kts 57°
2026-04-27 12:48 40.91345 24.61833 108 ft 78 kts 65°
2026-04-27 12:48 40.91648 24.62422 350 ft 77 kts 67°
2026-04-27 12:49 40.91987 24.63048 485 ft 90 kts 60°
2026-04-27 12:49 40.92358 24.63717 728 ft 90 kts 59°
2026-04-27 12:49 40.92717 24.64382 1022 ft 87 kts 61°
2026-04-27 12:49 40.93064 24.65031 1296 ft 88 kts 60°
2026-04-27 12:50 40.93413 24.65680 1620 ft 86 kts 61°
2026-04-27 12:50 40.93759 24.66333 1925 ft 87 kts 61°
2026-04-27 12:50 40.94112 24.66981 2252 ft 85 kts 57°
2026-04-27 12:50 40.94453 24.67627 2530 ft 85 kts 59°
2026-04-27 12:51 40.94789 24.68273 2805 ft 85 kts 58°
2026-04-27 12:51 40.95142 24.68910 3080 ft 87 kts 57°
2026-04-27 12:51 40.95485 24.69553 3365 ft 82 kts 58°
2026-04-27 12:51 40.95813 24.70170 3622 ft 85 kts 56°
2026-04-27 12:52 40.96162 24.70834 3853 ft 88 kts 54°
2026-04-27 12:52 40.96526 24.71507 4098 ft 93 kts 53°
2026-04-27 12:52 40.96893 24.72194 4368 ft 93 kts 52°
2026-04-27 12:52 40.97267 24.72890 4640 ft 93 kts 50°
2026-04-27 12:53 40.98032 24.74320 5155 ft 97 kts 47°
2026-04-27 12:53 40.98421 24.75061 5405 ft 99 kts 47°
2026-04-27 12:53 40.98822 24.75805 5659 ft 100 kts 47°
2026-04-27 12:54 40.99231 24.76562 5916 ft 103 kts 49°
2026-04-27 12:54 40.99643 24.77352 6164 ft 105 kts 49°
2026-04-27 12:54 41.00064 24.78144 6426 ft 106 kts 47°
2026-04-27 12:54 41.00491 24.78947 6670 ft 108 kts 47°
2026-04-27 12:55 41.00924 24.79757 6906 ft 108 kts 47°
2026-04-27 12:55 41.01358 24.80572 7138 ft 109 kts 47°
2026-04-27 12:55 41.01791 24.81382 7397 ft 108 kts 47°
2026-04-27 12:55 41.02225 24.82197 7635 ft 109 kts 47°
2026-04-27 12:56 41.02662 24.83018 7868 ft 109 kts 47°
2026-04-27 12:56 41.03100 24.83842 8106 ft 110 kts 48°
2026-04-27 12:56 41.03561 24.84703 8213 ft 124 kts 48°
2026-04-27 12:56 41.04082 24.85689 8224 ft 140 kts 50°
2026-04-27 12:57 41.04655 24.86782 8224 ft 147 kts 50°
2026-04-27 12:57 41.05242 24.87908 8220 ft 150 kts 53°
2026-04-27 12:57 41.05578 24.89239 8222 ft 157 kts 82°
2026-04-27 12:57 41.05409 24.90671 8225 ft 160 kts 112°
2026-04-27 12:58 41.04745 24.91839 8220 ft 160 kts 143°
2026-04-27 12:58 41.03788 24.92589 8217 ft 160 kts 155°
2026-04-27 12:58 41.02795 24.93255 8217 ft 160 kts 158°
2026-04-27 12:58 41.01781 24.93863 8219 ft 160 kts 160°
2026-04-27 12:59 41.00748 24.94415 8216 ft 160 kts 163°
2026-04-27 12:59 40.99701 24.94908 8218 ft 160 kts 166°
2026-04-27 12:59 40.98640 24.95341 8219 ft 159 kts 168°
2026-04-27 12:59 40.97569 24.95714 8219 ft 159 kts 170°
2026-04-27 13:00 40.96492 24.96028 8217 ft 158 kts 173°
2026-04-27 13:00 40.95424 24.96279 8218 ft 157 kts 175°
2026-04-27 13:00 40.94344 24.96472 8217 ft 157 kts 178°
2026-04-27 13:00 40.93255 24.96608 8216 ft 157 kts 181°
2026-04-27 13:01 40.92169 24.96682 8210 ft 156 kts 183°
2026-04-27 13:01 40.91087 24.96699 8210 ft 155 kts 186°
2026-04-27 13:01 40.90010 24.96657 8210 ft 154 kts 188°
2026-04-27 13:01 40.88940 24.96559 8210 ft 154 kts 190°
2026-04-27 13:02 40.87880 24.96405 8210 ft 153 kts 193°
2026-04-27 13:02 40.86829 24.96196 8210 ft 152 kts 195°
2026-04-27 13:02 40.85792 24.95933 8210 ft 151 kts 198°
2026-04-27 13:02 40.84767 24.95617 8210 ft 151 kts 200°
2026-04-27 13:03 40.83758 24.95251 8207 ft 150 kts 203°
2026-04-27 13:03 40.82766 24.94835 8207 ft 149 kts 205°
2026-04-27 13:03 40.81793 24.94370 8206 ft 148 kts 208°
2026-04-27 13:03 40.80838 24.93859 8207 ft 148 kts 210°
2026-04-27 13:04 40.79903 24.93302 8205 ft 147 kts 212°
2026-04-27 13:04 40.78989 24.92700 8206 ft 146 kts 214°
2026-04-27 13:04 40.78099 24.92058 8205 ft 145 kts 217°
2026-04-27 13:04 40.77233 24.91375 8216 ft 145 kts 219°
2026-04-27 13:05 40.76391 24.90654 8217 ft 144 kts 221°
2026-04-27 13:05 40.75574 24.89895 8218 ft 143 kts 223°
2026-04-27 13:05 40.74781 24.89098 8218 ft 143 kts 225°
2026-04-27 13:05 40.74015 24.88266 8218 ft 142 kts 227°
2026-04-27 13:06 40.73284 24.87413 8213 ft 142 kts 229°
2026-04-27 13:06 40.72574 24.86518 8213 ft 141 kts 231°
2026-04-27 13:06 40.71891 24.85593 8212 ft 141 kts 233°
2026-04-27 13:06 40.71236 24.84640 8213 ft 140 kts 235°
2026-04-27 13:07 40.70609 24.83657 8213 ft 139 kts 237°
2026-04-27 13:07 40.70013 24.82650 8213 ft 139 kts 239°
2026-04-27 13:07 40.69449 24.81623 8213 ft 138 kts 241°
2026-04-27 13:07 40.68915 24.80573 8213 ft 138 kts 243°
2026-04-27 13:08 40.68410 24.79500 8214 ft 137 kts 245°
2026-04-27 13:08 40.67936 24.78406 8213 ft 137 kts 246°
2026-04-27 13:08 40.67497 24.77304 8212 ft 136 kts 249°
2026-04-27 13:08 40.67088 24.76184 8217 ft 136 kts 251°
2026-04-27 13:09 40.66706 24.75040 8217 ft 136 kts 251°
2026-04-27 13:09 40.66361 24.73893 8215 ft 136 kts 253°
2026-04-27 13:09 40.66048 24.72720 8215 ft 134 kts 257°
2026-04-27 13:09 40.65766 24.71543 8213 ft 139 kts 257°
2026-04-27 13:10 40.65495 24.70298 8212 ft 140 kts 259°
2026-04-27 13:10 40.65275 24.69075 8209 ft 138 kts 262°
2026-04-27 13:10 40.65088 24.67844 8208 ft 136 kts 264°
2026-04-27 13:10 40.64934 24.66618 8211 ft 136 kts 265°
2026-04-27 13:11 40.64813 24.65394 8204 ft 134 kts 267°
2026-04-27 13:11 40.64726 24.64172 8208 ft 134 kts 269°
2026-04-27 13:11 40.64670 24.62943 8211 ft 135 kts 271°
2026-04-27 13:11 40.64649 24.61702 8208 ft 135 kts 273°
2026-04-27 13:12 40.64659 24.60473 8208 ft 134 kts 275°
2026-04-27 13:12 40.64700 24.59252 8213 ft 134 kts 276°
2026-04-27 13:12 40.64775 24.58026 8211 ft 134 kts 278°
2026-04-27 13:12 40.64882 24.56813 8207 ft 132 kts 280°
2026-04-27 13:13 40.65021 24.55616 8207 ft 132 kts 282°
2026-04-27 13:13 40.65188 24.54430 8206 ft 131 kts 284°
2026-04-27 13:13 40.65385 24.53255 8204 ft 131 kts 285°
2026-04-27 13:13 40.65616 24.52087 8208 ft 132 kts 287°
2026-04-27 13:14 40.65876 24.50918 8209 ft 133 kts 288°
2026-04-27 13:14 40.66168 24.49763 8207 ft 132 kts 290°
2026-04-27 13:14 40.66483 24.48644 8207 ft 132 kts 292°
2026-04-27 13:14 40.66830 24.47532 8207 ft 131 kts 294°
2026-04-27 13:15 40.67205 24.46436 8211 ft 131 kts 296°
2026-04-27 13:15 40.67610 24.45355 8211 ft 131 kts 297°
2026-04-27 13:15 40.68039 24.44299 8211 ft 131 kts 299°
2026-04-27 13:15 40.68496 24.43263 8211 ft 130 kts 301°
2026-04-27 13:16 40.68979 24.42249 8208 ft 130 kts 302°
2026-04-27 13:16 40.69486 24.41259 8208 ft 130 kts 304°
2026-04-27 13:16 40.69982 24.40262 8208 ft 130 kts 297°
2026-04-27 13:16 40.70220 24.39540 8208 ft 130 kts 290°
2026-04-27 13:17 40.70423 24.38373 8207 ft 131 kts 279°
2026-04-27 13:17 40.70377 24.36757 8207 ft 134 kts 263°
2026-04-27 13:17 40.70215 24.35970 8207 ft 136 kts 255°
2026-04-27 13:17 40.69612 24.34506 8204 ft 140 kts 238°
2026-04-27 13:18 40.69170 24.33861 8204 ft 142 kts 229°
2026-04-27 13:18 40.68229 24.32664 8204 ft 142 kts 230°
2026-04-27 13:18 40.67521 24.31760 8204 ft 142 kts 230°
2026-04-27 13:18 40.67043 24.31151 8205 ft 142 kts 230°
2026-04-27 13:19 40.66102 24.29953 8203 ft 142 kts 230°
2026-04-27 13:19 40.65624 24.29345 8203 ft 142 kts 230°
2026-04-27 13:19 40.64914 24.28440 8203 ft 142 kts 230°
2026-04-27 13:19 40.64212 24.27531 8202 ft 140 kts 235°
2026-04-27 13:20 40.63749 24.26441 8204 ft 135 kts 257°
2026-04-27 13:20 40.63564 24.25235 8205 ft 134 kts 263°
2026-04-27 13:20 40.63400 24.24040 8205 ft 134 kts 264°
2026-04-27 13:20 40.63235 24.22834 8205 ft 134 kts 264°
2026-04-27 13:21 40.63071 24.21621 8206 ft 134 kts 264°
2026-04-27 13:21 40.62907 24.20414 8205 ft 134 kts 264°
2026-04-27 13:21 40.62743 24.19204 8205 ft 134 kts 264°
2026-04-27 13:21 40.62578 24.17993 8206 ft 134 kts 264°
2026-04-27 13:22 40.62413 24.16782 8204 ft 134 kts 264°
2026-04-27 13:22 40.62248 24.15571 8204 ft 134 kts 264°
2026-04-27 13:22 40.62082 24.14360 8198 ft 134 kts 264°
2026-04-27 13:22 40.61917 24.13149 8201 ft 135 kts 264°
2026-04-27 13:23 40.61751 24.11934 8202 ft 135 kts 264°
2026-04-27 13:23 40.61584 24.10716 8202 ft 135 kts 264°
2026-04-27 13:23 40.61418 24.09501 8201 ft 134 kts 264°
2026-04-27 13:23 40.61252 24.08293 8201 ft 134 kts 264°
2026-04-27 13:24 40.61087 24.07086 8204 ft 134 kts 264°
2026-04-27 13:24 40.60921 24.05877 8199 ft 135 kts 264°
2026-04-27 13:24 40.60754 24.04662 8199 ft 135 kts 264°
2026-04-27 13:24 40.60585 24.03439 8199 ft 136 kts 264°
2026-04-27 13:25 40.60420 24.02235 8199 ft 135 kts 264°
2026-04-27 13:25 40.60250 24.01004 8199 ft 135 kts 264°
2026-04-27 13:25 40.60081 23.99784 8199 ft 135 kts 263°
2026-04-27 13:25 40.59909 23.98582 8199 ft 135 kts 263°
2026-04-27 13:26 40.59740 23.97361 8196 ft 135 kts 264°
2026-04-27 13:26 40.59577 23.96147 8196 ft 135 kts 264°
2026-04-27 13:26 40.59418 23.94925 8197 ft 135 kts 264°
2026-04-27 13:26 40.59258 23.93702 8197 ft 136 kts 264°
2026-04-27 13:27 40.59079 23.92482 8196 ft 136 kts 263°
2026-04-27 13:27 40.58904 23.91264 8196 ft 135 kts 264°
2026-04-27 13:27 40.58733 23.90048 8196 ft 135 kts 264°
2026-04-27 13:27 40.58563 23.88832 8197 ft 135 kts 264°
2026-04-27 13:28 40.58394 23.87620 8191 ft 135 kts 264°
2026-04-27 13:28 40.58225 23.86406 8191 ft 135 kts 264°
2026-04-27 13:28 40.58055 23.85189 8191 ft 135 kts 264°
2026-04-27 13:28 40.57886 23.83981 8190 ft 135 kts 264°
2026-04-27 13:29 40.57716 23.82770 8192 ft 135 kts 264°
2026-04-27 13:29 40.57549 23.81573 8190 ft 134 kts 263°
2026-04-27 13:29 40.57380 23.80372 8193 ft 134 kts 264°
2026-04-27 13:29 40.57210 23.79149 8191 ft 134 kts 264°
2026-04-27 13:30 40.57042 23.77953 8191 ft 135 kts 263°
2026-04-27 13:30 40.56871 23.76734 8193 ft 135 kts 264°
2026-04-27 13:30 40.56698 23.75519 8192 ft 135 kts 263°
2026-04-27 13:30 40.56528 23.74302 8188 ft 135 kts 264°
2026-04-27 13:31 40.56358 23.73088 8186 ft 136 kts 263°
2026-04-27 13:31 40.56186 23.71862 8189 ft 136 kts 263°
2026-04-27 13:31 40.56015 23.70649 8185 ft 133 kts 264°
2026-04-27 13:31 40.55845 23.69445 8188 ft 134 kts 263°
2026-04-27 13:32 40.55674 23.68247 8189 ft 135 kts 264°
2026-04-27 13:32 40.55504 23.67024 8192 ft 137 kts 264°
2026-04-27 13:32 40.55330 23.65789 8188 ft 137 kts 263°
2026-04-27 13:32 40.55153 23.64567 8186 ft 135 kts 263°
2026-04-27 13:33 40.54982 23.63356 8187 ft 135 kts 264°
2026-04-27 13:33 40.54812 23.62137 8185 ft 136 kts 263°
2026-04-27 13:33 40.54637 23.60914 8183 ft 136 kts 264°
2026-04-27 13:33 40.54464 23.59690 8181 ft 136 kts 264°
2026-04-27 13:34 40.54290 23.58462 8187 ft 138 kts 263°
2026-04-27 13:34 40.54112 23.57219 8185 ft 138 kts 263°
2026-04-27 13:34 40.53938 23.55976 8185 ft 138 kts 263°
2026-04-27 13:34 40.53760 23.54734 8180 ft 137 kts 263°
2026-04-27 13:35 40.53583 23.53498 8180 ft 138 kts 263°
2026-04-27 13:35 40.53405 23.52252 8179 ft 139 kts 263°
2026-04-27 13:35 40.53227 23.51009 8181 ft 139 kts 263°
2026-04-27 13:35 40.53049 23.49773 8178 ft 137 kts 264°